www.pogodaiklimat.ru

Погода и климат >> Архив погоды >> Россия >> Чукотка >> Омолон


ПОГОДА в Омолоне

АРХИВ ПОГОДЫ в Омолоне

Время (UTC), дата Ветер
(напр.,м/с)
 
Видим.   Явления Облачность Т
(С)
Тd
(С)
f
(%)
Тe
(С)
Тes
(С)
Комфортность P
(гПа)
Po
(гПа)
Тmin
(С)
Tmax
(С)
R
(мм)
R24
(мм)
S
(см)
09 13.11 С 1
{2}
3500 м снег 10/8 600 м
[Sc As op]
-20.1 -22.3 83 -23 -23 1021.1 985.9 -20.1 6
12 13.11 С 1
{2}
3300 м снег 10/8 600 м
[Sc As op]
-19.1 -21.0 85 -22 -22 1019.4 984.4
15 13.11 штиль 0
{2}
3600 м снег 10/8 600 м
[Sc As op]
-18.5 -20.4 85 -19 -19 1017.0 982.2
18 13.11 СЗ 2
{3}
3800 м снег 10/8 600 м
[Sc As op]
-17.9 -19.8 85 -23 -23 1014.9 980.2
21 13.11 СЗ 1
{3}
8000 м слабый снег 10/5 600 м
[Sc As op]
-17.1 -19.0 85 -20 -20 1013.5 979.0 -20.2 5 50
00 14.11 СЗ 1
{4}
3600 м снег 10/8 600 м
[Sc As op]
-16.6 -18.5 85 -19 -19 1011.3 976.9
03 14.11 СЗ 2
{7}
3700 м снег 10/6 600 м
[Sc As op]
-16.5 -18.5 84 -22 -22 1009.0 974.7
06 14.11 СЗ 3
{7}
4400 м слабый снег 10/6 600 м
[Sc As op]
-17.0 -19.2 83 -24 -24 1008.3 974.0
09 14.11 СЗ 3
{7}
3900 м снег 10/6 600 м
[Sc As op]
-17.5 -19.7 83 -25 -25 1008.3 974.0 -16.4 5
12 14.11 СЗ 4
{9}
3800 м снег {метель} 10/5 600 м
[Sc As op]
-17.5 -20.1 80 -26 -26 1007.9 973.6
15 14.11 СЗ 3
{9}
3900 м снег {метель} 10/6 600 м
[Sc As op]
-17.4 -19.6 83 -24 -24 1007.1 972.8
18 14.11 З 3
{8}
3700 м снег {метель} 10/6 600 м
[Sc As op]
-17.3 -19.6 82 -24 -24 1007.0 972.7
21 14.11 СЗ 3
{8}
9000 м слабый снег 10/8 600 м
[Sc Ac trans Cs]
-17.0 -19.4 82 -24 -24 1007.7 973.4 -17.6 5 53
00 15.11 СЗ 4
{8}
23 км снежные кристаллы 10/0
[Ac trans Cs]
-17.4 -21.1 73 -26 -26 1008.9 974.5
03 15.11 СЗ 1
{6}
18 км слабый снег 10/0
[Ac trans Cs]
-16.7 -20.5 72 -19 -19 1010.7 976.3
06 15.11 ЮВ 1
{3}
50 км {снег} 5/0
[Ac trans Ci fib]
-22.3 -24.5 82 -26 -26 1012.9 977.7
09 15.11 Ю 1
{3}
50 км 3/0
[Ci fib]
-27.4 -30.2 77 -31 -31 опасность
обморожения
1015.7 979.7 -16.6 0.2
12 15.11 СВ 1
{2}
50 км 3/0
[Ci fib]
-30.9 -34.1 73 -35 -35 опасность
обморожения
1018.0 981.3
15 15.11 штиль 0
{2}
50 км 3/0
[Ci fib]
-33.6 -37.1 71 -34 -34 опасность
обморожения
1018.9 981.8
18 15.11 штиль 0
{1}
50 км 1/0
[Ci fib]
-35.2 -38.9 69 -35 -35 опасность
обморожения
1018.2 980.9
21 15.11 штиль 0
{1}
50 км 5/0
[Ac trans Ci fib]
-37.2 -41.3 65 -37 -37 опасность
обморожения
1016.2 978.7 -37.2 52
00 16.11 штиль 0
{2}
50 км 10/3 1000 м
[Sc Ac trans Cs]
-32.5 -35.8 72 -33 -33 опасность
обморожения
1013.8 977.0 -37.3
03 16.11 штиль 0
{1}
5000 м слабый снег 10/3 600 м
[Sc As op]
-28.0 -30.9 76 -28 -28 1011.2 975.2
06 16.11 штиль 0
{2}
12 км слабый снег 10/8 600 м
[Sc As op]
-26.7 -29.5 77 -27 -27 1011.8 976.0
09 16.11 штиль 0
{2}
50 км {снег} 8/0
[Ac trans Ci fib]
-29.6 -32.8 74 -30 -30 1014.9 978.5 -26.0 1
12 16.11 Ю 1
{2}
50 км {снег} 6/0
[Ci fib]
-32.7 -36.2 71 -37 -37 опасность
обморожения
1018.5 981.5
15 16.11 штиль 0
{2}
50 км 6/0
[Ci fib]
-34.0 -37.7 69 -34 -34 опасность
обморожения
1020.9 983.7
18 16.11 Ю 1
{2}
50 км 9/5 1000 м
[Sc Ac trans Ci fib]
-27.9 -30.9 75 -32 -32 опасность
обморожения
1021.3 985.0
21 16.11 ЮВ 2
{3}
50 км 10/8 600 м
[Sc Ac trans]
-25.3 -27.8 80 -32 -32 опасность
обморожения
1021.6 985.7 -34.2 54
00 17.11 ЮЗ 1
{3}
50 км 4/3 1000 м
[Sc Ac trans]
-23.2 -25.7 80 -27 -26 1021.9 986.3
03 17.11 штиль 0
{2}
50 км 9/5 1000 м
[Sc Ac trans Ci fib]
-22.4 -24.8 81 -22 -22 1020.8 985.4
06 17.11 ЮВ 1
{2}
50 км 8/3 1000 м
[Sc Ac trans Ci fib]
-26.7 -29.4 78 -30 -30 1021.1 984.9
09 17.11 штиль 0
{2}
50 км 9/4 1000 м
[Sc Ac trans Ci fib]
-26.4 -28.9 79 -26 -26 1019.7 983.7 -22.1
12 17.11 штиль 0
{1}
50 км 9/5 1000 м
[Sc Ac trans Ci fib]
-23.8 -26.2 81 -24 -24 1017.0 981.4
15 17.11 штиль 0
{1}
12 км слабый снег 10/6 1000 м
[Sc Ac trans Cs]
-20.5 -22.5 84 -21 -21 1012.0 977.2
18 17.11 СЗ 1
{2}
5000 м слабый снег 10/8 600 м
[Sc As op]
-15.7 -17.2 88 -18 -18 1007.4 973.2
21 17.11 СЗ 1
{3}
3500 м снег 10/8 600 м
[Sc As op]
-13.8 -15.3 88 -16 -16 1004.1 970.3 -26.4 3 56
00 18.11 штиль 0
{2}
2300 м снег 10/8 600 м
[Sc As op]
-13.7 -15.3 88 -14 -14 1002.0 968.3
03 18.11 СЗ 1
{2}
2900 м снег 10/6 600 м
[Sc As op]
-13.3 -14.9 88 -16 -16 999.9 966.3
06 18.11 СЗ 2
{3}
2800 м снег 10/8 600 м
[Sc As op]
-13.0 -14.5 88 -18 -18 999.3 965.7
09 18.11 СЗ 3
{7}
3100 м снег 10/5 600 м
[Sc As op]
-11.8 -13.1 90 -18 -18 999.7 966.3 -11.8 8
12 18.11 З 5
{9}
3800 м снег {метель} 10/6 600 м
[Sc As op]
-12.3 -14.1 86 -20 -20 1002.4 968.9
15 18.11 З 4
{11}
3900 м снег {метель} 10/6 600 м
[Sc As op]
-14.7 -18.0 76 -22 -22 1006.0 972.0
18 18.11 СЗ 3
{8}
8000 м слабый снег {метель} 10/5 600 м
[Sc As op]
-17.2 -20.9 73 -24 -24 1009.5 975.1
21 18.11 СЗ 1
{6}
17 км слабый снег 10/3 600 м
[Sc Ac trans Cs]
-20.1 -22.6 80 -23 -23 1013.7 978.8 -20.2 5 70
00 19.11 ЮВ 1
{3}
24 км снежные кристаллы 10/0
[Ac trans Cs]
-22.5 -25.3 78 -26 -26 1017.3 982.0 -22.8
03 19.11 ЮВ 1
{3}
50 км {снег} 5/0
[Ac trans Cs]
-24.0 -26.5 80 -27 -27 1020.5 984.8
06 19.11 Ю 1
{3}
50 км {снег} 3/0
[Ci fib]
-31.5 -34.6 74 -36 -36 опасность
обморожения
1023.9 986.9
09 19.11 В 1
{2}
50 км 3/0
[Ci fib]
-35.2 -38.8 69 -40 -40 опасность
обморожения
1026.0 988.5 -20.0 0.0
12 19.11 штиль 0
{4}
50 км 4/0
[Ci fib]
-35.4 -39.1 69 -35 -35 опасность
обморожения
1026.0 988.5
15 19.11 ЮЗ 2
{3}
50 км 5/0
[Ci fib]
-35.4 -39.0 69 -44 -44 опасность
обморожения
1024.0 986.5
18 19.11 штиль 0
{3}
50 км 10/0
[Ac trans Ci fib]
-29.9 -32.9 75 -30 -30 1019.6 983.1
21 19.11 ЮВ 1
{3}
50 км 10/6 1000 м
[Sc Ac trans Ci fib]
-24.1 -26.6 80 -28 -28 1013.5 978.0 -36.6 68
00 20.11 штиль 0
{2}
2200 м снег 10/8 600 м
[Sc As op]
-21.0 -23.1 83 -21 -21 1010.3 975.3
03 20.11 Ю 1
{2}
7000 м слабый снег 10/8 600 м
[Sc As op]
-17.4 -19.2 86 -20 -20 1005.3 971.1
06 20.11 штиль 0
{2}
11 км слабый снег 10/8 600 м
[Sc As op]
-14.8 -16.4 88 -15 -15 1001.5 967.7

 

Местоположение метеостанции Омолон (Чукотка, Россия): широта 65.23 долгота 160.50 высота над уровнем моря 260 м.

В архиве по умолчанию представлена погода в Омолоне за последнюю неделю. Архивные данные за месяц целиком и за предыдущие месяцы, начиная с января 2011 года, Вы можете получить, выбрав интересующий диапазон дат из раскрывающегося списка и нажав кнопку "Ввод!".

Внимание! Время в таблицах - всемирное. Для получения местного времени необходимо прибавить поправку, которая в Омолоне равна 12 ч.

Смотрите также архив погоды в соседних городах и на ближайших метеорологических станциях:

Погода в Кегали (Магаданская область, Россия) (112 км)
Погода в Верхне-Пенжино (Камчатский край, Россия) (209 км)
Погода в Баимке (Чукотка, Россия) (222 км)
Погода в Лабазной (Магаданская область, Россия) (235 км)
Погода в Коркодоне (Магаданская область, Россия) (315 км)
Погода в Константиновской (Чукотка, Россия) (326 км)
Погода в Балыгычане (Магаданская область, Россия) (339 км)
Погода в Анюйске (Чукотка, Россия) (350 км)
Погода на Островном (Чукотка, Россия) (358 км)
Погода в Эвенске (Магаданская область, Россия) (374 км)

Пояснения к столбцам:

Ветер - указаны скорость ветра в м/с - средняя за 10 мин, порывы в срок и между сроками (в фигурных скобках) и направление, откуда дует ветер: С - северный, СВ - северо-восточный, В - восточный, ЮВ - юго-восточный, Ю - южный, ЮЗ - юго-западный, З - западный, СЗ - северо-западный.
Видимость - горизонтальная дальность видимости в метрах или километрах. При видимости от 1 до 10 км при отсутствии осадков обычно наблюдается дымка, при ухудшении видимости до 1 км и менее - туман. В сухую погоду видимость может ухудшаться дымом, пылью или мглою.
Явления - указаны атмосферные явления, наблюдавшиеся в срок или в последний час перед сроком; фигурными скобками обозначены явления, наблюдавшиеся между сроками (за 1-3 часа до срока); квадратными скобками обозначены град или гололедные отложения с указанием их диаметра в мм.
Облачность - указаны через наклонную черту общая и нижняя облачность в баллах и высота нижней границы облаков в метрах; квадратными скобками обозначены формы облаков: Ci - перистые, Cs - перисто-слоистые, Cc - перисто-кучевые, Ac - высококучевые, As - высокослоистые, Sc - слоисто-кучевые, Ns - слоисто-дождевые, Cu - кучевые, Cb - кучево-дождевые. Подробнее классификацию облаков см. в Атласе облаков (PDF).
T - Температура воздуха - температура, измеренная на высоте 2 м над землей.
Td - Температура точки росы - температура, при понижении до которой содержащийся в воздухе водяной пар достигнет насыщения.
f - Относительная влажность воздуха - влажноcть воздуха, измеренная на высоте 2 м над землей.
Te - Эффективная температура - температура, которую ощущает одетый по сезону человек в тени. Характеристика душности погоды. При расчете учитывается влияние влажности воздуха и скорости ветра на теплоощущения человека.
Tes - Эффективная температура на солнце - температура, которую ощущает человек, с поправкой на солнечный нагрев. Характеристика знойности погоды. Зависит от высоты солнца над горизонтом, облачности и скорости ветра. Ночью, в пасмурную погоду, а также при ветре 12 м/с и более поправка равна нулю.
P - Атмосферное давление - приведенное к уровню моря атмосферное давление.
Po - Атмосферное давление - измеренное на уровне метеостанции атмосферное давление.
Tmin - Минимальная температура - минимум температуры воздуха на высоте 2 м над землей.
Tmax - Максимальная температура - максимум температуры воздуха на высоте 2 м над землей.
R - Количество осадков - Количество выпавших осадков за период времени, мм. При наведении курсора мыши на число - период времени, за который выпало указанное количество осадков.
R24 - Количество осадков - Количество выпавших осадков за 24 часа, мм.
S - Снежный покров - Высота снежного покрова, см. При наведении курсора мыши на число - состояние снежного покрова и степень покрытия местности в баллах.